User: anonymous   Login
Location: Unspecified
(0.0000°N, 0.0000°E)
Time: 22:33:24
(UTC+00:00)
Language:

NNS O-2 - Orbit

View from above orbital plane
View from above orbital plane
View from above satellite
View from above satellite

Ground track
Ground track

The orbit data is extracted from the following two-line orbital elements,

1 00965U 64083D   18175.13871610  .00000007  00000-0 -44034-5 0  9998
2 00965  90.0107 192.2303 0041247 157.2906 270.8003 13.56718077648897
Epoch (UTC): 24 June 2018 03:19:45
Eccentricity: 0.0041247
inclination: 90.0107°
perigee height: 1017 km
apogee height: 1078 km
right ascension of ascending node: 192.2303°
argument of perigee: 157.2906°
revolutions per day: 13.56718077
mean anomaly at epoch: 270.8003°
orbit number at epoch: 64889

The dashed part of the orbit path shows where the satellite is in the earth's shadow,  

DLR